[[{"header":{"parameterUnit":"m.s-1","parameterCategory":2,"la1":30.2991,"la2":30.254,"lo1":-89.0895,"lo2":-89.0444,"dy":0.0017,"dx":0.0017,"nx":28,"ny":28,"refTime":"2023-07-27T03:00:00:Z","depth":"0","parameterNumber":2,"parameterNumberName":"U-component_of_CURRENTS"},"data":[0,0,0,0,0,0,0,0,0,0,0,0,0,0,0,0,0,0,0,0,0,0,0,0,0,0,0,0,0,0,0,0,0,0,0,0,0,0,0,0,0,0,0,0,0,0,0,0,0,0,0,0,0,0,0,0,0,0,-0.3316,-0.3318,0,-0.3421,-0.3422,-0.3423,-0.3434,-0.3433,-0.3432,-0.3431,-0.3555,-0.3559,-0.3563,0,0,0,0,0,0,0,0,0,0,0,0,0,-0.3115,-0.3118,-0.3316,-0.3318,-0.3319,-0.3421,-0.3422,-0.3423,-0.3434,-0.3433,-0.3432,-0.3431,-0.3554,-0.3559,-0.3563,0,0,0,0,0,0,0,0,0,0,0,0,0,-0.3206,-0.312,-0.3316,-0.334,-0.3343,-0.3421,-0.3422,-0.3424,-0.3434,-0.3433,-0.3432,-0.3431,-0.3552,-0.3558,-0.3564,-0.3623,0,0,-0.3582,-0.3585,0,0,0,0,0,0,0,0,-0.3201,-0.3213,-0.3335,-0.3338,-0.3342,-0.3417,-0.3397,-0.3493,-0.3434,-0.3395,-0.3431,-0.343,-0.3514,-0.3523,-0.3539,-0.3629,-0.3634,-0.3583,-0.3587,-0.3589,-0.3591,0,0,0,0,0,0,0,-0.3194,-0.3208,-0.3354,-0.3337,-0.3341,-0.3343,-0.3354,-0.3415,-0.3457,-0.3399,-0.3401,-0.3419,-0.3516,-0.3534,-0.3543,-0.3636,-0.3583,-0.3588,-0.3592,-0.3594,-0.3619,-0.3616,0,0,0,0,0,0,-0.3192,-0.3203,-0.335,-0.3357,-0.3272,-0.3347,-0.336,-0.3391,-0.3456,-0.3466,-0.342,-0.3419,-0.3524,-0.3536,-0.3547,-0.3489,-0.3589,-0.3595,-0.3598,-0.3622,-0.3618,-0.3615,0,0,0,0,0,0,-0.3187,-0.3205,-0.3346,-0.3284,-0.3303,-0.3353,-0.3387,-0.3393,-0.3407,-0.3473,-0.3482,-0.3426,-0.3524,-0.3539,-0.3582,-0.3499,-0.3597,-0.3603,-0.3625,-0.362,-0.3616,-0.3457,0,0,0,0,0,0,-0.3181,-0.3203,-0.3216,-0.3285,-0.3307,-0.3366,-0.3389,-0.3396,-0.3422,-0.3422,-0.3482,-0.3492,-0.3524,-0.3572,-0.3587,-0.3509,-0.3607,-0.3629,-0.3623,-0.3618,-0.3466,-0.3448,-0.3432,0,0,0,0,0,-0.3174,-0.3182,-0.3216,-0.3234,-0.3326,-0.3366,-0.3375,-0.3404,-0.3424,-0.3415,-0.3459,-0.349,-0.3545,-0.3577,-0.3595,-0.3515,-0.3631,-0.3625,-0.3618,-0.3474,-0.3451,-0.3432,0,0,0,0,0,0,-0.3092,-0.3188,-0.3225,-0.3261,-0.3305,-0.3368,-0.3366,-0.3405,-0.3437,-0.3435,-0.3498,-0.3511,-0.349,-0.3546,-0.3579,-0.3501,-0.3576,-0.3573,-0.3459,-0.3439,-0.3422,-0.3322,-0.3612,0,0,0,0,0,-0.3089,-0.3115,-0.3206,-0.3224,-0.3251,-0.3315,-0.3336,-0.3362,-0.3407,-0.3419,-0.3464,-0.349,-0.348,-0.3499,-0.3509,-0.352,-0.3461,-0.3464,-0.3447,-0.3433,-0.3359,-0.3203,-0.3163,-0.3593,-0.3593,-0.3593,0,0,-0.3055,-0.3114,-0.3125,-0.3208,-0.3244,-0.3263,-0.3321,-0.3343,-0.3331,-0.3431,-0.3423,-0.3442,-0.3467,-0.3433,-0.3428,-0.3474,-0.3286,-0.3424,-0.3412,-0.3345,-0.3192,-0.3149,-0.3111,-0.3589,-0.359,-0.359,0,0,-0.2996,-0.3061,-0.3067,-0.3107,-0.3172,-0.321,-0.3218,-0.3287,-0.3284,-0.3319,-0.3325,-0.3264,-0.337,-0.3276,-0.3267,-0.3166,-0.3191,-0.322,-0.307,-0.292,-0.2882,-0.2847,-0.2737,-0.2694,-0.3224,-0.3224,-0.3224,0,-0.2944,-0.2986,-0.3066,-0.3085,-0.3099,-0.3184,-0.3178,-0.3192,-0.3256,-0.322,-0.3294,-0.324,-0.3243,-0.31,-0.3046,-0.3108,-0.3087,-0.3151,-0.2892,-0.2856,-0.2823,-0.2719,-0.2673,-0.3215,-0.3216,-0.3217,-0.3218,0,-0.2904,-0.2933,-0.2931,-0.2985,-0.3008,-0.301,-0.306,-0.3055,-0.3092,-0.3093,-0.2996,-0.299,-0.2936,-0.2921,-0.2964,-0.2728,-0.2809,-0.2877,-0.2934,-0.2769,-0.2672,-0.2627,-0.3203,-0.3206,-0.3209,-0.3211,0,0,-0.2774,-0.2882,-0.2876,-0.2887,-0.2954,-0.2962,-0.2927,-0.2896,-0.2832,-0.2856,-0.274,-0.2651,-0.2639,-0.2615,-0.2624,-0.2487,-0.2222,-0.2598,-0.2595,-0.2469,-0.1944,-0.1936,-0.1888,-0.2296,-0.2287,-0.228,-0.1975,0,-0.2702,-0.2721,-0.2788,-0.2763,-0.277,-0.2819,-0.277,-0.2744,-0.2737,-0.265,-0.256,-0.2474,-0.2534,-0.2494,-0.2351,-0.2274,-0.2097,-0.2299,-0.2136,-0.2128,-0.2124,-0.183,-0.1756,-0.1473,-0.1932,-0.1924,-0.1919,0,-0.262,-0.2653,-0.2641,-0.2651,-0.2652,-0.2644,-0.2566,-0.2539,-0.2429,-0.2414,-0.2304,-0.2288,-0.2061,-0.2155,-0.1857,-0.2027,-0.1924,-0.1861,-0.1851,-0.1847,-0.2031,-0.1709,-0.1375,-0.1252,-0.185,-0.1856,-0.1861,0,-0.2477,-0.2521,-0.2507,-0.2521,-0.256,-0.2524,-0.2519,-0.2446,-0.2385,-0.2247,-0.2187,-0.2,-0.1892,-0.1739,-0.1642,-0.1744,-0.1345,-0.147,-0.1334,-0.1339,-0.1226,-0.1234,-0.0716,-0.1146,-0.1147,-0.1148,-0.1148,0,-0.236,-0.233,-0.2449,-0.2439,-0.2385,-0.2433,-0.2327,-0.2302,-0.2206,-0.209,-0.205,-0.1914,-0.1785,-0.1608,-0.1528,-0.1288,-0.1239,-0.1183,-0.1198,-0.1178,-0.1184,-0.1044,-0.1166,-0.1136,-0.1139,-0.1141,-0.1143,0,-0.2184,-0.2266,-0.2257,-0.2315,-0.2329,-0.2288,-0.2268,-0.2178,-0.2122,-0.197,-0.1918,-0.1778,-0.1558,-0.1438,-0.1161,-0.1112,-0.0875,-0.0828,-0.0837,-0.0854,-0.0642,-0.0767,-0.0493,-0.0479,-0.0579,-0.0576,-0.0574,0,-0.2085,-0.2075,-0.217,-0.218,-0.2211,-0.2181,-0.2144,-0.2128,-0.2061,-0.1886,-0.1799,-0.1562,-0.1375,-0.1009,-0.0856,-0.0628,-0.0701,-0.0443,-0.0546,-0.048,-0.063,-0.0836,-0.0862,-0.0349,-0.0345,-0.0341,-0.0338,0,-0.1888,-0.1946,-0.1965,-0.2019,-0.2025,-0.2017,-0.1991,-0.1938,-0.1884,-0.176,-0.1569,-0.1394,-0.1061,-0.074,-0.0482,-0.0402,-0.0463,-0.0367,-0.0237,-0.0293,-0.0536,-0.0585,-0.0761,-0.0308,-0.0311,-0.0314,-0.0315,-0.0316,-0.1727,-0.172,-0.1788,-0.1816,-0.1846,-0.1851,-0.176,-0.1735,-0.1618,-0.1382,-0.1347,-0.0984,-0.0602,-0.0219,-0.0164,0.0049,-0.021,0.0114,-0.0009,-0.0193,-0.0243,-0.0367,-0.0001,-0.0003,-0.0004,-0.0005,-0.0005,0,-0.1519,-0.155,-0.1573,-0.1627,-0.1615,-0.1687,-0.1631,-0.1498,-0.1317,-0.1118,-0.0903,-0.0375,0.0009,0.0252,0.0536,0.0524,0.0323,0.0441,0.0251,0.0234,0.0281,0.0236,0.0598,0.0598,0.0598,0.0598,0.0597,0.0597,-0.1407,-0.1374,-0.1419,-0.1383,-0.1416,-0.1293,-0.1226,-0.1072,-0.0884,-0.0485,-0.0142,0.0046,0.0388,0.0801,0.0986,0.0878,0.0693,0.0496,0.0444,0.0564,0.0526,0.049,0.0443,0.0842,0.0841,0.0462,0.0459,0.0457]},{"header":{"parameterUnit":"m.s-1","parameterCategory":2,"la1":30.2991,"la2":30.254,"lo1":-89.0895,"lo2":-89.0444,"dy":0.0017,"dx":0.0017,"nx":28,"ny":28,"refTime":"2023-07-27T03:00:00:Z","depth":"0","parameterNumber":3,"parameterNumberName":"V-component_of_CURRENTS"},"data":[0,0,0,0,0,0,0,0,0,0,0,0,0,0,0,0,0,0,0,0,0,0,0,0,0,0,0,0,0,0,0,0,0,0,0,0,0,0,0,0,0,0,0,0,0,0,0,0,0,0,0,0,0,0,0,0,0,0,-0.083,-0.083,0,-0.0799,-0.0799,-0.0799,-0.0714,-0.0712,-0.071,-0.0708,-0.0681,-0.0682,-0.0684,0,0,0,0,0,0,0,0,0,0,0,0,0,-0.0779,-0.0781,-0.083,-0.083,-0.0829,-0.08,-0.0799,-0.0799,-0.0715,-0.0712,-0.071,-0.0707,-0.0681,-0.0682,-0.0684,0,0,0,0,0,0,0,0,0,0,0,0,0,-0.0782,-0.0781,-0.083,-0.0782,-0.0778,-0.08,-0.0799,-0.0799,-0.0715,-0.0712,-0.0709,-0.0706,-0.0681,-0.0682,-0.0684,-0.0754,0,0,-0.0689,-0.069,0,0,0,0,0,0,0,0,-0.0782,-0.0784,-0.079,-0.0786,-0.078,-0.0756,-0.0771,-0.0783,-0.0716,-0.0741,-0.0708,-0.0705,-0.0708,-0.0707,-0.071,-0.0752,-0.0751,-0.0689,-0.069,-0.0691,-0.0691,0,0,0,0,0,0,0,-0.0782,-0.0785,-0.082,-0.079,-0.0784,-0.0749,-0.0747,-0.0773,-0.0743,-0.0738,-0.0731,-0.0727,-0.0705,-0.0709,-0.0709,-0.0751,-0.0689,-0.0691,-0.0692,-0.0692,-0.0721,-0.072,0,0,0,0,0,0,-0.0788,-0.0785,-0.0821,-0.0819,-0.0772,-0.0753,-0.075,-0.0768,-0.0742,-0.0735,-0.0729,-0.0723,-0.0707,-0.0707,-0.0708,-0.073,-0.0691,-0.0692,-0.0693,-0.0721,-0.072,-0.072,0,0,0,0,0,0,-0.0788,-0.0793,-0.0822,-0.0798,-0.0799,-0.0757,-0.0778,-0.0769,-0.0761,-0.0735,-0.0727,-0.0728,-0.0705,-0.0705,-0.0738,-0.073,-0.0693,-0.0695,-0.0721,-0.0721,-0.072,-0.0812,0,0,0,0,0,0,-0.0787,-0.0794,-0.0808,-0.08,-0.08,-0.0842,-0.078,-0.0771,-0.0763,-0.0754,-0.0733,-0.0727,-0.0703,-0.0736,-0.0739,-0.0731,-0.0696,-0.0721,-0.0721,-0.072,-0.0809,-0.0814,-0.0819,0,0,0,0,0,-0.0786,-0.0818,-0.081,-0.0813,-0.0823,-0.0843,-0.0842,-0.0801,-0.0766,-0.078,-0.0766,-0.0727,-0.0731,-0.074,-0.0743,-0.0735,-0.0722,-0.0721,-0.072,-0.0807,-0.0813,-0.0819,0,0,0,0,0,0,-0.0795,-0.0812,-0.0803,-0.0836,-0.0842,-0.0828,-0.0834,-0.0812,-0.0814,-0.0804,-0.0768,-0.0764,-0.0781,-0.0752,-0.0761,-0.0733,-0.0703,-0.0704,-0.0767,-0.0773,-0.0778,-0.0748,-0.0697,0,0,0,0,0,-0.081,-0.0843,-0.0847,-0.0874,-0.088,-0.0862,-0.0862,-0.0845,-0.0843,-0.0837,-0.0828,-0.0801,-0.0786,-0.0777,-0.0775,-0.0793,-0.0725,-0.0771,-0.0776,-0.0781,-0.0755,-0.0609,-0.0598,-0.0718,-0.0718,-0.0718,0,0,-0.0817,-0.0833,-0.0848,-0.0878,-0.0877,-0.0908,-0.0855,-0.0871,-0.0885,-0.0841,-0.0868,-0.0845,-0.08,-0.0808,-0.0806,-0.078,-0.0733,-0.078,-0.0785,-0.0756,-0.0607,-0.0595,-0.0584,-0.0718,-0.0718,-0.0718,0,0,-0.0861,-0.087,-0.0915,-0.093,-0.0945,-0.0942,-0.095,-0.0956,-0.0942,-0.0987,-0.0927,-0.0896,-0.0919,-0.085,-0.0822,-0.0853,-0.0779,-0.0847,-0.084,-0.07,-0.0689,-0.0677,-0.0674,-0.0661,-0.0832,-0.0832,-0.0832,0,-0.0865,-0.0925,-0.0928,-0.0974,-0.098,-0.0963,-0.1,-0.1004,-0.1017,-0.0993,-0.1007,-0.0936,-0.0924,-0.0842,-0.0855,-0.0862,-0.0811,-0.0831,-0.0706,-0.0692,-0.0678,-0.0677,-0.0661,-0.0836,-0.0836,-0.0835,-0.0835,0,-0.095,-0.0985,-0.1012,-0.1065,-0.1078,-0.111,-0.1111,-0.1122,-0.1114,-0.1088,-0.1038,-0.1005,-0.0927,-0.0925,-0.0919,-0.0799,-0.0813,-0.0746,-0.0692,-0.0672,-0.0673,-0.0656,-0.0842,-0.0841,-0.0839,-0.0838,0,0,-0.0978,-0.1056,-0.1062,-0.1086,-0.1123,-0.1142,-0.1167,-0.1157,-0.112,-0.1125,-0.104,-0.1028,-0.0953,-0.0912,-0.0854,-0.075,-0.0678,-0.0719,-0.0709,-0.0723,-0.0457,-0.0547,-0.0537,-0.0574,-0.0569,-0.0565,-0.0534,0,-0.1035,-0.1131,-0.1149,-0.1212,-0.1252,-0.1233,-0.1243,-0.1223,-0.1188,-0.1112,-0.1012,-0.0936,-0.0958,-0.0894,-0.0798,-0.067,-0.0617,-0.0698,-0.0467,-0.0462,-0.0545,-0.0512,-0.0443,-0.0411,-0.0516,-0.0513,-0.0511,0,-0.1109,-0.1159,-0.124,-0.1263,-0.1272,-0.1303,-0.1263,-0.1272,-0.1156,-0.1113,-0.0993,-0.0891,-0.0744,-0.075,-0.0548,-0.0593,-0.0549,-0.0479,-0.0474,-0.0493,-0.0513,-0.0425,-0.0374,-0.0264,-0.0482,-0.0484,-0.0487,0,-0.1134,-0.121,-0.1269,-0.1288,-0.1324,-0.1329,-0.1335,-0.1266,-0.1223,-0.1075,-0.0967,-0.0808,-0.0667,-0.0554,-0.0465,-0.0471,-0.0255,-0.0228,-0.0294,-0.0306,-0.0166,-0.0173,0.0033,-0.0098,-0.0098,-0.0098,-0.0098,0,-0.1186,-0.1222,-0.1287,-0.1323,-0.1353,-0.136,-0.1338,-0.1315,-0.1196,-0.106,-0.0946,-0.0766,-0.0591,-0.0445,-0.0414,-0.032,-0.0217,-0.0288,-0.0266,-0.0214,-0.0224,-0.0057,-0.0015,-0.0097,-0.0097,-0.0097,-0.0098,0,-0.1195,-0.1249,-0.1313,-0.1364,-0.1377,-0.1399,-0.1373,-0.1326,-0.1219,-0.1013,-0.094,-0.0696,-0.0516,-0.0433,-0.0239,-0.0239,-0.009,-0.0175,-0.0216,-0.0199,-0.0163,-0.0132,0.0068,0.0161,-0.0206,-0.0208,-0.0209,0,-0.1199,-0.1247,-0.1342,-0.1378,-0.1405,-0.1427,-0.1418,-0.1363,-0.1256,-0.0943,-0.0798,-0.058,-0.0374,-0.0228,-0.0223,-0.0225,-0.0123,-0.0167,-0.0153,-0.0144,-0.0088,-0.0076,-0.0009,-0.0047,-0.0047,-0.0047,-0.0047,0,-0.1189,-0.1239,-0.1299,-0.139,-0.1421,-0.1413,-0.1362,-0.1248,-0.1068,-0.082,-0.0451,-0.0269,-0.0194,-0.0099,-0.0201,-0.0196,-0.0048,-0.0169,-0.0047,0.0138,0.0072,0.0165,-0.0199,-0.0045,-0.0045,-0.0045,-0.0045,-0.0046,-0.1157,-0.1212,-0.131,-0.1385,-0.1414,-0.1324,-0.1189,-0.102,-0.0747,-0.0238,-0.0152,0.0255,0.0151,0.004,-0.0041,-0.0073,-0.0079,0.0021,0.0069,0.0085,0.0173,-0.0296,-0.0184,-0.0185,-0.0186,-0.0186,-0.0187,0,-0.1104,-0.1196,-0.1284,-0.134,-0.133,-0.134,-0.1089,-0.0838,-0.0378,0.0014,0.0401,0.0761,0.0601,0.0424,0.0195,0.0211,0.0262,0.0278,0.0408,0.0478,0.0193,0.0198,0.0267,0.0267,0.0266,0.0266,0.0266,0.0266,-0.1082,-0.1174,-0.1254,-0.1251,-0.1243,-0.1014,-0.0794,-0.0392,-0.0025,0.0694,0.1138,0.1381,0.1255,0.0708,0.0503,0.0503,0.0703,0.0652,0.0719,0.0597,0.058,0.0564,0.0584,0.0732,0.0733,0.106,0.1063,0.1065]}],[{"header":{"parameterUnit":"m.s-1","parameterCategory":2,"la1":30.2991,"la2":30.254,"lo1":-89.0895,"lo2":-89.0444,"dy":0.0017,"dx":0.0017,"nx":28,"ny":28,"refTime":"2023-07-27T03:00:00:Z","depth":"2","parameterNumber":2,"parameterNumberName":"U-component_of_CURRENTS"},"data":[0,0,0,0,0,0,0,0,0,0,0,0,0,0,0,0,0,0,0,0,0,0,0,0,0,0,0,0,0,0,0,0,0,0,0,0,0,0,0,0,0,0,0,0,0,0,0,0,0,0,0,0,0,0,0,0,0,0,-0.2163,-0.2165,0,-0.2284,-0.2285,-0.2285,-0.2353,-0.2354,-0.2356,-0.2357,-0.2414,-0.2414,-0.2415,0,0,0,0,0,0,0,0,0,0,0,0,0,-0.2018,-0.2019,-0.2163,-0.2165,-0.2168,-0.2284,-0.2285,-0.2285,-0.2353,-0.2354,-0.2356,-0.2357,-0.2414,-0.2414,-0.2415,0,0,0,0,0,0,0,0,0,0,0,0,0,-0.2093,-0.2019,-0.2162,-0.2224,-0.2232,-0.2284,-0.2285,-0.2285,-0.2353,-0.2354,-0.2356,-0.2358,-0.2414,-0.2414,-0.2415,-0.238,0,0,-0.2416,-0.2417,0,0,0,0,0,0,0,0,-0.2089,-0.2097,-0.2212,-0.222,-0.2229,-0.2315,-0.2255,-0.2318,-0.2352,-0.2295,-0.2357,-0.2359,-0.2381,-0.2384,-0.2388,-0.2383,-0.2386,-0.2416,-0.2417,-0.2417,-0.2417,0,0,0,0,0,0,0,-0.2083,-0.2092,-0.2199,-0.2215,-0.2225,-0.2256,-0.2267,-0.2267,-0.2316,-0.23,-0.2308,-0.2339,-0.2384,-0.2387,-0.239,-0.2386,-0.2416,-0.2417,-0.2417,-0.2417,-0.2427,-0.2427,0,0,0,0,0,0,-0.2088,-0.2087,-0.2196,-0.2204,-0.2175,-0.2258,-0.227,-0.2276,-0.2318,-0.233,-0.2337,-0.2342,-0.2385,-0.2389,-0.2392,-0.2408,-0.2417,-0.2417,-0.2418,-0.2427,-0.2427,-0.2427,0,0,0,0,0,0,-0.2083,-0.2095,-0.2191,-0.2159,-0.2175,-0.2259,-0.2266,-0.2278,-0.2321,-0.2349,-0.2357,-0.2373,-0.2387,-0.2391,-0.2416,-0.2409,-0.2418,-0.2418,-0.2427,-0.2427,-0.2427,-0.2405,0,0,0,0,0,0,-0.2078,-0.2092,-0.2096,-0.2158,-0.2177,-0.2249,-0.2265,-0.2279,-0.234,-0.2348,-0.2381,-0.2387,-0.2389,-0.2415,-0.2417,-0.241,-0.2419,-0.2427,-0.2427,-0.2427,-0.2405,-0.2404,-0.2402,0,0,0,0,0,-0.2072,-0.208,-0.2094,-0.2109,-0.2179,-0.2252,-0.2263,-0.2322,-0.234,-0.2364,-0.238,-0.2388,-0.2416,-0.2416,-0.2417,-0.241,-0.2427,-0.2427,-0.2427,-0.2406,-0.2404,-0.2402,0,0,0,0,0,0,-0.2041,-0.2091,-0.2107,-0.2135,-0.2201,-0.2269,-0.2304,-0.2337,-0.2367,-0.2376,-0.2388,-0.2394,-0.2408,-0.2416,-0.2416,-0.2413,-0.2421,-0.2421,-0.2405,-0.2403,-0.2402,-0.2386,-0.2419,0,0,0,0,0,-0.2029,-0.2049,-0.2108,-0.2148,-0.217,-0.2236,-0.2273,-0.2314,-0.2357,-0.2375,-0.2397,-0.2407,-0.24,-0.2412,-0.2413,-0.2416,-0.2384,-0.2412,-0.241,-0.2409,-0.2398,-0.2379,-0.2374,-0.2426,-0.2426,-0.2426,0,0,-0.2052,-0.2072,-0.2097,-0.2143,-0.2192,-0.2222,-0.2261,-0.2332,-0.236,-0.2371,-0.2407,-0.2405,-0.24,-0.2398,-0.2406,-0.2411,-0.2365,-0.2409,-0.2407,-0.2397,-0.2378,-0.2373,-0.2368,-0.2426,-0.2426,-0.2426,0,0,-0.2097,-0.2101,-0.2128,-0.215,-0.2218,-0.2247,-0.2273,-0.2341,-0.2371,-0.2401,-0.2402,-0.2409,-0.2416,-0.2409,-0.24,-0.2395,-0.2356,-0.239,-0.2371,-0.2353,-0.2348,-0.2344,-0.2239,-0.2225,-0.2392,-0.2392,-0.2392,0,-0.2112,-0.2136,-0.2159,-0.2167,-0.2201,-0.2256,-0.2295,-0.2315,-0.2386,-0.2397,-0.2417,-0.2401,-0.2418,-0.2384,-0.238,-0.2392,-0.2338,-0.2377,-0.2349,-0.2345,-0.2341,-0.2235,-0.222,-0.2391,-0.2391,-0.2391,-0.2391,0,-0.2143,-0.2169,-0.219,-0.2204,-0.2242,-0.2287,-0.232,-0.235,-0.2385,-0.2397,-0.2396,-0.2398,-0.2384,-0.2387,-0.238,-0.2346,-0.2298,-0.2346,-0.2351,-0.2334,-0.2223,-0.2208,-0.2389,-0.239,-0.239,-0.239,0,0,-0.2135,-0.2203,-0.2193,-0.2222,-0.2258,-0.2292,-0.2326,-0.2363,-0.236,-0.2389,-0.238,-0.237,-0.2354,-0.2343,-0.2331,-0.2317,-0.2235,-0.231,-0.231,-0.2196,-0.211,-0.1981,-0.1951,-0.2273,-0.2272,-0.2271,-0.2022,0,-0.2152,-0.2164,-0.2209,-0.226,-0.228,-0.2327,-0.2345,-0.2373,-0.2385,-0.2372,-0.2359,-0.2333,-0.2338,-0.2316,-0.2299,-0.2277,-0.2204,-0.2293,-0.2151,-0.2145,-0.2028,-0.1935,-0.1832,-0.1596,-0.2008,-0.2005,-0.2003,0,-0.2137,-0.2144,-0.2189,-0.2273,-0.2287,-0.2323,-0.2346,-0.2368,-0.2347,-0.2347,-0.2309,-0.2289,-0.2248,-0.2265,-0.217,-0.222,-0.2139,-0.211,-0.2101,-0.1981,-0.199,-0.1693,-0.1553,-0.1978,-0.198,-0.1982,-0.1984,0,-0.2071,-0.2135,-0.2175,-0.2185,-0.2266,-0.2312,-0.2346,-0.2351,-0.2353,-0.2306,-0.2282,-0.2234,-0.2194,-0.2139,-0.2056,-0.2113,-0.1923,-0.2011,-0.1785,-0.1772,-0.1657,-0.1637,-0.189,-0.1891,-0.1891,-0.1892,-0.1893,0,-0.2053,-0.2084,-0.2143,-0.2148,-0.2196,-0.2257,-0.2286,-0.2305,-0.2289,-0.2249,-0.2242,-0.2167,-0.2166,-0.2062,-0.2004,-0.181,-0.1869,-0.1729,-0.17,-0.1639,-0.1621,-0.1962,-0.1974,-0.1883,-0.1885,-0.1886,-0.1888,0,-0.2027,-0.206,-0.2099,-0.2155,-0.2185,-0.22,-0.2272,-0.2248,-0.2247,-0.2191,-0.2172,-0.2105,-0.1961,-0.1891,-0.1769,-0.1711,-0.1577,-0.1471,-0.1346,-0.1307,-0.1444,-0.1458,-0.1226,-0.1219,-0.1214,-0.1209,-0.1205,0,-0.2041,-0.204,-0.2071,-0.2087,-0.2142,-0.2171,-0.218,-0.2212,-0.2183,-0.2122,-0.2072,-0.1931,-0.1764,-0.1506,-0.1378,-0.118,-0.1313,-0.099,-0.1109,-0.1379,-0.1376,-0.1399,-0.142,-0.0916,-0.091,-0.0906,-0.0902,0,-0.2043,-0.2032,-0.2046,-0.2036,-0.2065,-0.2081,-0.2101,-0.2063,-0.2055,-0.1971,-0.1803,-0.1668,-0.1424,-0.1171,-0.0946,-0.084,-0.1043,-0.0882,-0.1182,-0.1118,-0.1073,-0.1076,-0.1109,-0.0858,-0.0862,-0.0866,-0.0868,-0.087,-0.2027,-0.2009,-0.1978,-0.198,-0.1992,-0.1946,-0.1897,-0.185,-0.173,-0.1552,-0.1538,-0.129,-0.1196,-0.0783,-0.0633,-0.0532,-0.0635,-0.0646,-0.0668,-0.0693,-0.0719,-0.0669,-0.0376,-0.0378,-0.0379,-0.038,-0.0381,0,-0.1953,-0.1928,-0.1922,-0.1884,-0.183,-0.188,-0.1801,-0.1652,-0.141,-0.1292,-0.1099,-0.0862,-0.0637,-0.0564,-0.0337,-0.0248,-0.0305,-0.0237,-0.0368,-0.0407,-0.0443,-0.0467,-0.0052,-0.0051,-0.0051,-0.005,0,0,-0.1909,-0.1847,-0.1812,-0.1698,-0.1686,-0.156,-0.147,-0.1211,-0.1055,-0.0764,-0.0647,-0.0612,-0.0574,-0.0372,-0.0254,-0.0141,-0.0283,-0.0093,-0.0351,-0.0547,-0.0584,-0.0653,-0.0726,0,0,0,0,0]},{"header":{"parameterUnit":"m.s-1","parameterCategory":2,"la1":30.2991,"la2":30.254,"lo1":-89.0895,"lo2":-89.0444,"dy":0.0017,"dx":0.0017,"nx":28,"ny":28,"refTime":"2023-07-27T03:00:00:Z","depth":"2","parameterNumber":3,"parameterNumberName":"V-component_of_CURRENTS"},"data":[0,0,0,0,0,0,0,0,0,0,0,0,0,0,0,0,0,0,0,0,0,0,0,0,0,0,0,0,0,0,0,0,0,0,0,0,0,0,0,0,0,0,0,0,0,0,0,0,0,0,0,0,0,0,0,0,0,0,-0.0588,-0.0586,0,-0.0437,-0.0435,-0.0434,-0.0306,-0.0304,-0.0303,-0.0301,0.0159,0.0169,0.018,0,0,0,0,0,0,0,0,0,0,0,0,0,-0.0687,-0.0687,-0.0588,-0.0586,-0.0584,-0.0437,-0.0435,-0.0433,-0.0306,-0.0304,-0.0302,-0.0301,0.0155,0.0168,0.0181,0,0,0,0,0,0,0,0,0,0,0,0,0,-0.0602,-0.0687,-0.0588,-0.0502,-0.0493,-0.0438,-0.0435,-0.0433,-0.0306,-0.0304,-0.0302,-0.03,0.0151,0.0167,0.0183,0.0239,0,0,0.0233,0.024,0,0,0,0,0,0,0,0,-0.0607,-0.0599,-0.0517,-0.0508,-0.0498,-0.0387,-0.0302,-0.0192,-0.0307,-0.0378,-0.0301,-0.0299,0.0004,0.0032,0.005,0.026,0.028,0.0234,0.0244,0.0251,0.0255,0,0,0,0,0,0,0,-0.0614,-0.0604,-0.0529,-0.0515,-0.0503,-0.0444,-0.043,-0.0281,-0.0196,-0.0372,-0.0362,-0.0345,0.0011,0.0033,0.0063,0.0287,0.0234,0.0248,0.0258,0.0264,0.0753,0.0756,0,0,0,0,0,0,-0.0637,-0.0611,-0.0534,-0.0524,-0.0547,-0.0445,-0.0429,-0.0426,-0.0204,-0.0171,-0.0347,-0.0339,0.0005,0.0043,0.008,0.0293,0.0251,0.0266,0.0275,0.075,0.0754,0.0757,0,0,0,0,0,0,-0.064,-0.0633,-0.054,-0.0562,-0.0546,-0.0446,-0.0442,-0.0424,-0.0342,-0.0189,-0.0149,-0.0277,0.0008,0.0057,0.0235,0.0307,0.0273,0.0288,0.0746,0.0751,0.0756,0.0635,0,0,0,0,0,0,-0.0644,-0.0635,-0.0623,-0.0565,-0.0546,-0.0469,-0.0444,-0.0422,-0.0338,-0.0325,-0.0116,-0.0076,0.0013,0.021,0.0251,0.0329,0.0301,0.0742,0.0748,0.0754,0.0635,0.0635,0.0636,0,0,0,0,0,-0.0649,-0.065,-0.0624,-0.0613,-0.054,-0.0467,-0.045,-0.0372,-0.0337,-0.0292,-0.0171,-0.0079,0.028,0.0224,0.0273,0.0357,0.0739,0.0747,0.0754,0.0635,0.0635,0.0636,0,0,0,0,0,0,-0.0666,-0.0635,-0.0606,-0.059,-0.0514,-0.0444,-0.0407,-0.0346,-0.0223,-0.0194,-0.0053,-0.0004,0.0184,0.0291,0.0227,0.052,0.0533,0.055,0.0427,0.0429,0.0429,0.0385,0.0314,0,0,0,0,0,-0.0674,-0.0669,-0.0607,-0.0579,-0.0556,-0.0471,-0.0426,-0.0363,-0.026,-0.0204,-0.0051,0.0109,0.024,0.0346,0.0489,0.0647,0.0643,0.0743,0.0743,0.0741,0.0743,0.0702,0.0694,0.0781,0.0781,0.0781,0,0,-0.0659,-0.0649,-0.0633,-0.0582,-0.0531,-0.0497,-0.0437,-0.0356,-0.0286,-0.0166,0.0002,0.0125,0.0282,0.0439,0.0538,0.0547,0.0724,0.0751,0.0747,0.075,0.0708,0.0698,0.0689,0.0786,0.0785,0.0784,0,0,-0.0642,-0.0633,-0.062,-0.0585,-0.051,-0.0473,-0.044,-0.0324,-0.023,-0.0076,0.0017,0.0159,0.0412,0.05,0.0578,0.0676,0.0716,0.0769,0.0747,0.0706,0.0695,0.0686,0.0673,0.0663,0.0776,0.0776,0.0776,0,-0.0622,-0.0614,-0.059,-0.0581,-0.055,-0.0466,-0.0426,-0.0343,-0.016,-0.0068,-0.0015,0.0279,0.0424,0.0552,0.0592,0.0674,0.0657,0.0715,0.0693,0.0684,0.0676,0.0665,0.0656,0.0771,0.0772,0.0772,0.0773,0,-0.0608,-0.0592,-0.0586,-0.0567,-0.0524,-0.0477,-0.0387,-0.0274,-0.0155,-0.0057,0.0143,0.0285,0.0456,0.0534,0.0602,0.066,0.0667,0.0672,0.0658,0.0657,0.065,0.0642,0.0764,0.0766,0.0767,0.0769,0,0,-0.0593,-0.0577,-0.0576,-0.0557,-0.0514,-0.0474,-0.0372,-0.0245,-0.0162,0.0017,0.0119,0.0338,0.0415,0.0506,0.0603,0.0592,0.0539,0.0617,0.0617,0.0546,0.0451,0.0468,0.0462,0.0508,0.0506,0.0505,0.0465,0,-0.0576,-0.0581,-0.056,-0.0522,-0.0514,-0.0431,-0.0342,-0.0215,-0.0092,0.0028,0.0166,0.03,0.04,0.0473,0.0475,0.0525,0.0514,0.0551,0.0517,0.0518,0.0481,0.0452,0.0461,0.0426,0.0457,0.0456,0.0455,0,-0.0576,-0.0584,-0.0562,-0.0499,-0.048,-0.0433,-0.0309,-0.0205,-0.0052,0.005,0.0156,0.0247,0.0324,0.0367,0.0401,0.041,0.044,0.045,0.0448,0.0499,0.0519,0.0441,0.0411,0.0442,0.0443,0.0444,0.0445,0,-0.0607,-0.058,-0.0564,-0.0557,-0.0479,-0.0398,-0.0322,-0.0175,-0.0083,0.0042,0.0073,0.0177,0.0217,0.0236,0.0322,0.0342,0.0299,0.0323,0.0363,0.0365,0.039,0.0398,0.0309,0.0309,0.0309,0.0309,0.031,0,-0.0623,-0.0599,-0.0572,-0.0562,-0.0507,-0.0415,-0.0306,-0.0211,-0.0094,-0.0042,0.0076,0.0075,0.0173,0.0184,0.0253,0.0284,0.0246,0.0349,0.0345,0.0358,0.0362,0.0402,0.0413,0.0308,0.0308,0.0309,0.0309,0,-0.0635,-0.0623,-0.0612,-0.0547,-0.0519,-0.0471,-0.0337,-0.0262,-0.015,-0.0113,-0.009,-0.0021,-0.0004,0.0091,0.0118,0.0195,0.0225,0.025,0.0283,0.0283,0.0338,0.0345,0.0272,0.0272,0.0272,0.0272,0.0272,0,-0.0632,-0.0635,-0.0637,-0.0631,-0.0587,-0.0504,-0.0435,-0.0302,-0.026,-0.0192,-0.0214,-0.0171,-0.0161,-0.0091,0.0054,0.0162,0.0188,0.0239,0.0294,0.0326,0.0328,0.0335,0.0342,0.0287,0.0287,0.0287,0.0288,0,-0.0636,-0.0648,-0.066,-0.0669,-0.063,-0.0595,-0.0506,-0.0512,-0.0383,-0.0386,-0.0421,-0.0413,-0.0281,-0.0157,0.0043,0.0109,0.0226,0.0245,0.0225,0.0303,0.0338,0.0343,0.0348,0.0288,0.0288,0.0288,0.0288,0.0288,-0.065,-0.0687,-0.0714,-0.0713,-0.0684,-0.0681,-0.0673,-0.0633,-0.0635,-0.0605,-0.0601,-0.0527,-0.0356,-0.0073,0.0055,0.0231,0.0221,0.0286,0.0286,0.0285,0.0302,0.0336,0.029,0.029,0.029,0.029,0.029,0,-0.0703,-0.072,-0.0733,-0.0763,-0.076,-0.0705,-0.0713,-0.0707,-0.0769,-0.0689,-0.0678,-0.049,-0.0308,-0.0091,0.019,0.0312,0.0324,0.0334,0.0341,0.0338,0.0336,0.0357,0.0358,0.0359,0.0359,0.036,0,0,-0.073,-0.0785,-0.0804,-0.0834,-0.0812,-0.0818,-0.084,-0.0844,-0.0791,-0.0745,-0.0623,-0.0499,-0.0261,-0.0057,0.0102,0.0259,0.0267,0.0269,0.0201,0.0187,0.0184,0.0293,0.0319,0,0,0,0,0]}],[{"header":{"parameterUnit":"m.s-1","parameterCategory":2,"la1":30.2991,"la2":30.254,"lo1":-89.0895,"lo2":-89.0444,"dy":0.0017,"dx":0.0017,"nx":28,"ny":28,"refTime":"2023-07-27T03:00:00:Z","depth":"4","parameterNumber":2,"parameterNumberName":"U-component_of_CURRENTS"},"data":[0,0,0,0,0,0,0,0,0,0,0,0,0,0,0,0,0,0,0,0,0,0,0,0,0,0,0,0,0,0,0,0,0,0,0,0,0,0,0,0,0,0,0,0,0,0,0,0,0,0,0,0,0,0,0,0,0,0,-0.0835,-0.0835,0,-0.0888,-0.0889,-0.089,-0.0968,-0.0969,-0.097,-0.0971,-0.1018,-0.1019,-0.1019,0,0,0,0,0,0,0,0,0,0,0,0,0,-0.0776,-0.0777,-0.0835,-0.0835,-0.0835,-0.0888,-0.0889,-0.089,-0.0968,-0.0969,-0.097,-0.0971,-0.1018,-0.1019,-0.1019,0,0,0,0,0,0,0,0,0,0,0,0,0,-0.0818,-0.0777,-0.0835,-0.0876,-0.088,-0.0887,-0.0889,-0.089,-0.0968,-0.0969,-0.097,-0.0971,-0.1018,-0.1019,-0.1019,-0.0999,0,0,-0.1021,-0.1022,0,0,0,0,0,0,0,0,-0.0815,-0.0821,-0.087,-0.0873,-0.0877,-0.0917,-0.0885,-0.0924,-0.0967,-0.094,-0.0971,-0.0972,-0.0979,-0.0983,-0.0999,-0.1001,-0.1003,-0.1022,-0.1022,-0.1022,-0.1023,0,0,0,0,0,0,0,-0.0812,-0.0819,-0.0862,-0.087,-0.0874,-0.0882,-0.0891,-0.0893,-0.0957,-0.0943,-0.0947,-0.0943,-0.0982,-0.0998,-0.1,-0.1004,-0.1022,-0.1022,-0.1023,-0.1023,-0.1103,-0.1105,0,0,0,0,0,0,-0.0794,-0.0816,-0.086,-0.0863,-0.0842,-0.0882,-0.0892,-0.0908,-0.0957,-0.0964,-0.0942,-0.0947,-0.0996,-0.0999,-0.1002,-0.1053,-0.1022,-0.1023,-0.1023,-0.1102,-0.1104,-0.1106,0,0,0,0,0,0,-0.0793,-0.0799,-0.0858,-0.0835,-0.0842,-0.0881,-0.0899,-0.0908,-0.0947,-0.0955,-0.0964,-0.0974,-0.0997,-0.1001,-0.1052,-0.1053,-0.1023,-0.1024,-0.11,-0.1102,-0.1105,-0.1108,0,0,0,0,0,0,-0.0792,-0.0798,-0.0812,-0.0834,-0.0842,-0.0882,-0.0898,-0.0908,-0.0939,-0.0946,-0.0984,-0.0989,-0.0998,-0.1051,-0.1052,-0.1053,-0.1025,-0.1098,-0.1101,-0.1104,-0.1106,-0.1111,-0.1115,0,0,0,0,0,-0.079,-0.0798,-0.0813,-0.0818,-0.0858,-0.0882,-0.0889,-0.0924,-0.0939,-0.0963,-0.1006,-0.0989,-0.1072,-0.1053,-0.1055,-0.1055,-0.1096,-0.11,-0.1104,-0.1104,-0.111,-0.1114,0,0,0,0,0,0,-0.0779,-0.0806,-0.0824,-0.0842,-0.0869,-0.0894,-0.0908,-0.0932,-0.0983,-0.0994,-0.1013,-0.1021,-0.1064,-0.1068,-0.1047,-0.1093,-0.1079,-0.1084,-0.1079,-0.1084,-0.1089,-0.1071,-0.1025,0,0,0,0,0,-0.078,-0.0794,-0.0825,-0.0838,-0.0852,-0.0884,-0.0899,-0.0926,-0.0962,-0.0987,-0.1012,-0.1044,-0.1075,-0.109,-0.1115,-0.1134,-0.1131,-0.1139,-0.1143,-0.1146,-0.1137,-0.1158,-0.1162,-0.1118,-0.1118,-0.1118,0,0,-0.0775,-0.079,-0.0799,-0.0836,-0.0858,-0.0881,-0.09,-0.0927,-0.0951,-0.098,-0.1025,-0.1059,-0.1089,-0.1124,-0.1141,-0.1129,-0.1159,-0.1151,-0.1154,-0.1142,-0.1162,-0.1166,-0.1169,-0.1121,-0.112,-0.112,0,0,-0.0756,-0.0793,-0.0796,-0.0826,-0.0857,-0.0883,-0.0895,-0.0935,-0.0965,-0.1009,-0.1042,-0.1085,-0.1123,-0.1148,-0.1164,-0.1205,-0.1185,-0.1214,-0.1209,-0.1231,-0.1233,-0.1236,-0.1233,-0.1235,-0.1209,-0.1209,-0.1209,0,-0.0745,-0.0768,-0.0801,-0.0816,-0.0839,-0.0885,-0.0904,-0.0936,-0.099,-0.1005,-0.1027,-0.1103,-0.1129,-0.1168,-0.1195,-0.1208,-0.1215,-0.1182,-0.1233,-0.1235,-0.1237,-0.1234,-0.1236,-0.121,-0.121,-0.121,-0.121,0,-0.0742,-0.0762,-0.0767,-0.0808,-0.0838,-0.0865,-0.091,-0.0943,-0.098,-0.1006,-0.1059,-0.1112,-0.115,-0.1171,-0.1198,-0.123,-0.1227,-0.1237,-0.121,-0.1241,-0.1236,-0.1239,-0.1211,-0.121,-0.121,-0.121,0,0,-0.0713,-0.0755,-0.0762,-0.0777,-0.0843,-0.0863,-0.0902,-0.0945,-0.0961,-0.102,-0.104,-0.1116,-0.1138,-0.1161,-0.1197,-0.1223,-0.1252,-0.124,-0.1241,-0.1219,-0.1286,-0.1148,-0.1137,-0.1275,-0.1276,-0.1276,-0.1273,0,-0.0704,-0.0724,-0.0754,-0.0783,-0.0804,-0.0859,-0.0887,-0.0931,-0.0971,-0.1,-0.1053,-0.1092,-0.1135,-0.1158,-0.1194,-0.1247,-0.126,-0.1251,-0.1274,-0.1274,-0.1133,-0.1136,-0.1278,-0.1274,-0.1275,-0.1275,-0.1275,0,-0.0698,-0.0717,-0.0742,-0.0772,-0.0787,-0.0811,-0.0866,-0.0897,-0.0946,-0.0968,-0.1012,-0.1054,-0.1114,-0.114,-0.1221,-0.1218,-0.1247,-0.128,-0.128,-0.1147,-0.114,-0.1241,-0.1279,-0.1279,-0.1278,-0.1278,-0.1278,0,-0.0671,-0.0703,-0.0723,-0.0745,-0.0794,-0.0808,-0.0838,-0.0889,-0.0902,-0.0949,-0.0954,-0.1029,-0.1067,-0.1128,-0.1197,-0.1219,-0.1264,-0.1297,-0.1192,-0.1182,-0.1306,-0.1303,-0.1328,-0.1328,-0.1328,-0.1328,-0.1328,0,-0.0651,-0.0667,-0.0711,-0.0728,-0.0745,-0.079,-0.0805,-0.0834,-0.0865,-0.0867,-0.0936,-0.0947,-0.1071,-0.1114,-0.1175,-0.1171,-0.1242,-0.1174,-0.1167,-0.1309,-0.1307,-0.1307,-0.1304,-0.1328,-0.1328,-0.1328,-0.1328,0,-0.0614,-0.0646,-0.0665,-0.0714,-0.0729,-0.0745,-0.0774,-0.0776,-0.0811,-0.0815,-0.0826,-0.0897,-0.0946,-0.1027,-0.112,-0.1118,-0.1143,-0.1118,-0.1235,-0.1238,-0.1056,-0.1055,-0.1007,-0.1001,-0.0997,-0.0994,-0.0991,0,-0.0593,-0.0606,-0.0652,-0.0652,-0.0672,-0.0699,-0.0708,-0.0748,-0.0742,-0.0775,-0.0763,-0.0814,-0.0857,-0.0875,-0.0969,-0.1018,-0.1024,-0.1017,-0.1062,-0.1022,-0.1022,-0.1027,-0.1031,-0.0984,-0.0983,-0.0982,-0.0981,0,-0.0562,-0.0585,-0.06,-0.0605,-0.0612,-0.0617,-0.0629,-0.0614,-0.0651,-0.0686,-0.0684,-0.0707,-0.0736,-0.0813,-0.0829,-0.0879,-0.1016,-0.0973,-0.0984,-0.1027,-0.0995,-0.1,-0.1009,-0.0966,-0.0968,-0.0969,-0.097,0,-0.0539,-0.0535,-0.0552,-0.0548,-0.0548,-0.0526,-0.0544,-0.054,-0.0549,-0.0587,-0.059,-0.065,-0.0725,-0.0736,-0.0764,-0.0775,-0.0793,-0.0798,-0.0819,-0.0836,-0.078,-0.0715,-0.0577,0,0,0,0,0,-0.0516,-0.0502,-0.049,-0.0473,-0.0463,-0.0465,-0.0484,-0.0503,-0.0542,-0.0518,-0.0549,-0.0572,-0.0598,-0.0642,-0.0627,-0.0685,-0.0792,-0.0661,-0.0807,-0.0884,-0.0901,-0.0852,0,0,0,0,0,0,-0.0496,-0.0489,-0.0477,-0.0413,-0.038,-0.0366,-0.0376,-0.0403,-0.0398,-0.0449,-0.0482,-0.0519,-0.0573,-0.0601,-0.0611,-0.0619,-0.0694,-0.0701,-0.0699,-0.0875,-0.089,-0.0904,-0.0859,0,0,0,0,0]},{"header":{"parameterUnit":"m.s-1","parameterCategory":2,"la1":30.2991,"la2":30.254,"lo1":-89.0895,"lo2":-89.0444,"dy":0.0017,"dx":0.0017,"nx":28,"ny":28,"refTime":"2023-07-27T03:00:00:Z","depth":"4","parameterNumber":3,"parameterNumberName":"V-component_of_CURRENTS"},"data":[0,0,0,0,0,0,0,0,0,0,0,0,0,0,0,0,0,0,0,0,0,0,0,0,0,0,0,0,0,0,0,0,0,0,0,0,0,0,0,0,0,0,0,0,0,0,0,0,0,0,0,0,0,0,0,0,0,0,-0.0587,-0.0587,0,-0.0588,-0.0588,-0.0588,-0.0605,-0.0606,-0.0606,-0.0606,-0.0611,-0.0611,-0.0611,0,0,0,0,0,0,0,0,0,0,0,0,0,-0.0561,-0.0562,-0.0587,-0.0587,-0.0587,-0.0588,-0.0588,-0.0588,-0.0605,-0.0606,-0.0606,-0.0606,-0.0611,-0.0611,-0.0611,0,0,0,0,0,0,0,0,0,0,0,0,0,-0.057,-0.0562,-0.0588,-0.0594,-0.0595,-0.0588,-0.0588,-0.0588,-0.0605,-0.0606,-0.0606,-0.0607,-0.0611,-0.0611,-0.0611,-0.0601,0,0,-0.061,-0.061,0,0,0,0,0,0,0,0,-0.057,-0.0571,-0.0594,-0.0594,-0.0594,-0.0595,-0.058,-0.0592,-0.0605,-0.0603,-0.0606,-0.0607,-0.0605,-0.0605,-0.0607,-0.0602,-0.0602,-0.061,-0.061,-0.061,-0.061,0,0,0,0,0,0,0,-0.0569,-0.0571,-0.059,-0.0593,-0.0594,-0.0583,-0.0586,-0.0583,-0.0603,-0.0604,-0.0604,-0.0601,-0.0605,-0.0607,-0.0607,-0.0602,-0.061,-0.061,-0.061,-0.061,-0.0606,-0.0606,0,0,0,0,0,0,-0.0567,-0.0571,-0.059,-0.0589,-0.0581,-0.0584,-0.0586,-0.0596,-0.0603,-0.0604,-0.0601,-0.0602,-0.0607,-0.0607,-0.0607,-0.0632,-0.061,-0.061,-0.061,-0.0606,-0.0606,-0.0606,0,0,0,0,0,0,-0.0567,-0.0569,-0.0589,-0.0578,-0.0579,-0.0584,-0.0595,-0.0596,-0.0605,-0.0601,-0.0602,-0.061,-0.0607,-0.0608,-0.06,-0.0631,-0.061,-0.061,-0.0606,-0.0606,-0.0606,-0.0659,0,0,0,0,0,0,-0.0566,-0.057,-0.0578,-0.0578,-0.058,-0.0594,-0.0594,-0.0596,-0.0601,-0.0603,-0.0608,-0.0609,-0.0608,-0.06,-0.0599,-0.063,-0.0609,-0.0606,-0.0606,-0.0606,-0.0657,-0.066,-0.0663,0,0,0,0,0,-0.0566,-0.0576,-0.0579,-0.0581,-0.0592,-0.0594,-0.0595,-0.06,-0.0602,-0.061,-0.0601,-0.0609,-0.06,-0.0599,-0.0599,-0.0631,-0.0606,-0.0606,-0.0606,-0.0655,-0.066,-0.0663,0,0,0,0,0,0,-0.057,-0.0578,-0.0582,-0.0595,-0.0598,-0.0597,-0.0601,-0.0603,-0.0603,-0.0605,-0.0601,-0.0601,-0.061,-0.0601,-0.06,-0.0626,-0.0608,-0.0608,-0.0646,-0.065,-0.0653,-0.0666,-0.0609,0,0,0,0,0,-0.0574,-0.0588,-0.0589,-0.0602,-0.0601,-0.0602,-0.0604,-0.0608,-0.0605,-0.0607,-0.0615,-0.0613,-0.0608,-0.0612,-0.0609,-0.0618,-0.0582,-0.0638,-0.0642,-0.0645,-0.0653,-0.0627,-0.0629,-0.0606,-0.0606,-0.0606,0,0,-0.0581,-0.0586,-0.0595,-0.0604,-0.0605,-0.0616,-0.0606,-0.0612,-0.0631,-0.0606,-0.0636,-0.0624,-0.0609,-0.0623,-0.0627,-0.0622,-0.0622,-0.0645,-0.0648,-0.0654,-0.0627,-0.063,-0.0632,-0.0606,-0.0606,-0.0606,0,0,-0.0595,-0.0604,-0.0616,-0.0619,-0.0622,-0.0627,-0.0631,-0.0639,-0.0652,-0.0664,-0.0653,-0.0654,-0.0657,-0.0658,-0.0654,-0.067,-0.0638,-0.0673,-0.0709,-0.0684,-0.0686,-0.0687,-0.0604,-0.0598,-0.068,-0.068,-0.068,0,-0.0598,-0.0621,-0.0619,-0.0627,-0.0636,-0.0635,-0.0651,-0.0663,-0.0673,-0.0685,-0.0682,-0.0687,-0.0678,-0.0689,-0.0695,-0.0683,-0.0637,-0.0699,-0.0689,-0.069,-0.0691,-0.0606,-0.0599,-0.0682,-0.0682,-0.0682,-0.0681,0,-0.0615,-0.0637,-0.0642,-0.0661,-0.067,-0.0683,-0.0695,-0.0717,-0.0732,-0.0742,-0.0762,-0.0747,-0.0751,-0.0752,-0.0728,-0.0736,-0.0688,-0.0694,-0.0684,-0.0697,-0.0605,-0.0597,-0.0686,-0.0685,-0.0684,-0.0684,0,0,-0.0611,-0.065,-0.0651,-0.0672,-0.0691,-0.0701,-0.0736,-0.0764,-0.079,-0.0806,-0.0836,-0.0831,-0.0824,-0.0817,-0.0798,-0.0781,-0.0731,-0.0742,-0.0739,-0.0666,-0.0625,-0.0574,-0.0558,-0.0735,-0.0735,-0.0735,-0.0544,0,-0.0626,-0.0658,-0.0675,-0.0716,-0.0735,-0.0753,-0.0787,-0.0811,-0.0834,-0.0865,-0.0859,-0.0875,-0.0849,-0.0852,-0.0832,-0.0771,-0.0716,-0.0779,-0.0618,-0.0612,-0.0572,-0.0551,-0.0735,-0.0538,-0.0536,-0.0534,-0.0533,0,-0.0629,-0.0658,-0.07,-0.0755,-0.0763,-0.0791,-0.0844,-0.0874,-0.0907,-0.0921,-0.0937,-0.0931,-0.0918,-0.0892,-0.0789,-0.0828,-0.0722,-0.0662,-0.0653,-0.0589,-0.0547,-0.053,-0.0517,-0.0518,-0.0519,-0.052,-0.0521,0,-0.0621,-0.0672,-0.0714,-0.0728,-0.0786,-0.0817,-0.0852,-0.0893,-0.0919,-0.096,-0.0973,-0.0965,-0.0954,-0.0866,-0.0745,-0.0763,-0.0603,-0.0613,-0.045,-0.0442,-0.0523,-0.0524,-0.0505,-0.0505,-0.0506,-0.0506,-0.0507,0,-0.0622,-0.0658,-0.0717,-0.0738,-0.0792,-0.0827,-0.0881,-0.0915,-0.0957,-0.098,-0.1,-0.0998,-0.0949,-0.0861,-0.0743,-0.0564,-0.0592,-0.0442,-0.04,-0.0541,-0.0546,-0.0513,-0.0516,-0.0499,-0.0501,-0.0502,-0.0503,0,-0.0609,-0.0646,-0.0699,-0.0768,-0.079,-0.0828,-0.0894,-0.0931,-0.0968,-0.0998,-0.101,-0.1009,-0.09,-0.08,-0.0641,-0.0549,-0.0395,-0.0305,-0.0417,-0.0387,-0.0239,-0.0247,-0.0118,-0.0115,-0.0113,-0.011,-0.0109,0,-0.061,-0.0635,-0.0709,-0.0742,-0.0779,-0.0837,-0.0877,-0.093,-0.0956,-0.0986,-0.0987,-0.0923,-0.0893,-0.0623,-0.0529,-0.0292,-0.0257,-0.0166,-0.0248,-0.0232,-0.0204,-0.0217,-0.0228,-0.0104,-0.0104,-0.0103,-0.0102,0,-0.0616,-0.0643,-0.0687,-0.0741,-0.079,-0.0842,-0.0895,-0.0904,-0.0953,-0.0985,-0.094,-0.0852,-0.0718,-0.058,-0.0392,-0.023,-0.0248,-0.0138,-0.0143,-0.0219,-0.0213,-0.0191,-0.0205,-0.0093,-0.0094,-0.0095,-0.0096,0,-0.0621,-0.0648,-0.0694,-0.074,-0.08,-0.0836,-0.0864,-0.0877,-0.0896,-0.0918,-0.0888,-0.0793,-0.0755,-0.0538,-0.0368,-0.0216,-0.0186,-0.0152,-0.0157,-0.0165,-0.0261,-0.0265,-0.0115,0,0,0,0,0,-0.0624,-0.0648,-0.069,-0.0739,-0.0794,-0.0824,-0.0873,-0.0894,-0.0921,-0.0875,-0.088,-0.0751,-0.0549,-0.0483,-0.0312,-0.0316,-0.016,-0.0112,-0.0123,-0.0042,-0.0053,-0.0157,0,0,0,0,0,0,-0.0627,-0.0667,-0.0681,-0.0724,-0.0756,-0.081,-0.0842,-0.0862,-0.0825,-0.084,-0.0727,-0.0703,-0.0499,-0.0636,-0.0307,-0.0268,-0.025,-0.0029,-0.0026,-0.0036,-0.0046,-0.0054,-0.0165,0,0,0,0,0]}]]